Olathe, KS

4:41 AM CDT on June 28, 2017 (GMT -0500)
Johnson County Executive

Weather History for KOJC - January, 2013

Change the Weather History Date:

Saturday, January 5, 2013

  Actual Average Record
Temperature  
Mean Temperature 36 °F 30 °F  
Max Temperature 42 °F 38 °F 67 °F (1956)
Min Temperature 29 °F 21 °F -9 °F (1940)
Degree Days  
Heating Degree Days 29 35  
Month to date heating degree days 196 175  
Since 1 July heating degree days 1994 2140  
Cooling Degree Days 0 0  
Month to date cooling degree days 0 0  
Year to date cooling degree days 0 0  
Moisture  
Dew Point 27 °F    
Average Humidity 70    
Maximum Humidity 78    
Minimum Humidity 62    
Precipitation  
Precipitation 0.00 in 0.03 in 0.55 in (2005)
Month to date precipitation T 0.15  
Year to date precipitation T 0.15  
Sea Level Pressure  
Sea Level Pressure 30.17 in    
Wind  
Wind Speed 9 mph (SW)    
Max Wind Speed 17 mph    
Max Gust Speed 24 mph    
Visibility 10 miles    
Events      
T = Trace of Precipitation, MM = Missing Value Source: NWS Daily Summary

Daily Weather History Graph

Daily Weather History Graph

Search for Another Location

Airport or City:

Trip Planner

Search our weather history database for the weather conditions in past years. The results will help you decide how hot, cold, wet, or windy it might be!

Date:

Astronomy

Jan. 05, 2013 Rise Set
Actual Time 7:37 AM CST 5:11 PM CST
Civil Twilight 7:08 AM CST 5:41 PM CST
Nautical Twilight 6:34 AM CST 6:14 PM CST
Astronomical Twilight 6:02 AM CST 6:46 PM CST
Moon 12:47 AM CST (1/5) 12:00 PM CST (1/5)
Length of Visible Light 10h 33m
Length of Day
9h 33m
Last Quarter, 44% of the Moon is Illuminated
Jan 5
Last Quarter
Jan 11
New
Jan 18
First Quarter
Jan 26
Full
Feb 3
Last Quarter

Hourly Weather History & Observations

Time (CST) Temp. Windchill Dew Point Humidity Pressure Visibility Wind Dir Wind Speed Gust Speed Precip Events Conditions
12:53 AM 30.0 °F 23.2 °F 21.0 °F 69% 30.25 in 10.0 mi SSW 6.9 mph - N/A   Clear
1:53 AM 30.9 °F 23.5 °F 21.9 °F 69% 30.24 in 10.0 mi SSW 8.1 mph - N/A   Clear
2:53 AM 28.9 °F 21.9 °F 21.9 °F 75% 30.24 in 10.0 mi SSW 6.9 mph - N/A   Clear
3:53 AM 30.9 °F 25.2 °F 23.0 °F 72% 30.23 in 10.0 mi SSW 5.8 mph - N/A   Mostly Cloudy
4:53 AM 32.0 °F 24.2 °F 24.1 °F 73% 30.22 in 10.0 mi SSW 9.2 mph - N/A   Overcast
5:53 AM 33.1 °F 26.1 °F 26.1 °F 75% 30.20 in 10.0 mi South 8.1 mph - N/A   Overcast
7:53 AM 34.0 °F 26.0 °F 27.0 °F 75% 30.21 in 10.0 mi South 10.4 mph - N/A   Mostly Cloudy
8:53 AM 35.1 °F 27.4 °F 27.0 °F 72% 30.20 in 10.0 mi SSW 10.4 mph - N/A   Overcast
9:53 AM 36.0 °F 26.3 °F 28.9 °F 76% 30.20 in 10.0 mi SSW 16.1 mph 24.2 mph N/A   Overcast
10:53 AM 37.0 °F 30.4 °F 30.0 °F 76% 30.19 in 9.0 mi SSW 9.2 mph - N/A   Overcast
11:53 AM 37.9 °F 30.9 °F 30.9 °F 76% 30.17 in 9.0 mi SSW 10.4 mph 17.3 mph N/A   Overcast
12:53 PM 39.9 °F 31.4 °F 30.9 °F 70% 30.12 in 10.0 mi SW 16.1 mph 24.2 mph N/A   Overcast
1:53 PM 41.0 °F 34.3 °F 30.9 °F 67% 30.09 in 10.0 mi SW 11.5 mph 18.4 mph N/A   Mostly Cloudy
2:19 PM 41.0 °F 34.3 °F 30.2 °F 65% 30.06 in 10.0 mi SW 11.5 mph 20.7 mph N/A   Overcast
2:53 PM 41.0 °F 33.5 °F 30.9 °F 67% 30.08 in 10.0 mi SW 13.8 mph - N/A   Overcast
3:53 PM 42.1 °F 37.1 °F 30.9 °F 65% 30.10 in 10.0 mi WSW 8.1 mph - N/A   Scattered Clouds
4:53 PM 41.0 °F 35.2 °F 30.0 °F 65% 30.10 in 10.0 mi SW 9.2 mph - N/A   Scattered Clouds
5:53 PM 37.9 °F 33.5 °F 30.0 °F 73% 30.12 in 10.0 mi SW 5.8 mph - N/A   Clear
6:53 PM 37.9 °F 32.7 °F 30.0 °F 73% 30.13 in 10.0 mi WSW 6.9 mph - N/A   Clear
7:53 PM 36.0 °F 29.0 °F 28.0 °F 73% 30.15 in 10.0 mi WNW 9.2 mph - N/A   Clear
8:53 PM 33.1 °F 27.7 °F 25.0 °F 72% 30.17 in 10.0 mi WNW 5.8 mph - N/A   Clear
9:53 PM 30.9 °F 24.3 °F 24.1 °F 76% 30.18 in 10.0 mi West 6.9 mph - N/A   Clear
10:53 PM 30.0 °F 23.2 °F 21.9 °F 72% 30.19 in 10.0 mi West 6.9 mph - N/A   Clear
11:53 PM 28.9 °F 20.4 °F 21.9 °F 75% 30.19 in 10.0 mi West 9.2 mph - N/A   Clear